[[{"header":{"parameterUnit":"m.s-1","parameterCategory":1,"la1":30.2991,"la2":30.254,"lo1":-89.0895,"lo2":-89.0444,"dy":0.0017,"dx":0.0017,"nx":28,"ny":28,"refTime":"2024-03-26T09:00:00:Z","depth":0,"parameterNumber":2,"parameterNumberName":"U-component_of_WINDS"},"data":[0,0,0,0,0,0,0,0,0,0,0,0,0,0,0,0,0,0,0,0,0,0,0,0,0,0,0,0,0,0,0,0,0,0,0,0,0,0,0,0,0,0,0,0,0,0,0,0,0,0,0,0,0,0,0,0,0,0,0.6593,0.6592,0,0.6532,0.6531,0.653,0.6501,0.6501,0.6501,0.6501,0.6435,0.6434,0.6432,0,0,0,0,0,0,0,0,0,0,0,0,0,0.6683,0.6682,0.6593,0.6592,0.6592,0.6532,0.6531,0.653,0.6501,0.6501,0.6501,0.6501,0.6436,0.6434,0.6432,0,0,0,0,0,0,0,0,0,0,0,0,0,0.6635,0.6681,0.6593,0.657,0.6567,0.6532,0.6531,0.653,0.6501,0.6501,0.6501,0.6501,0.6437,0.6434,0.6431,0.6414,0,0,0.6423,0.6422,0,0,0,0,0,0,0,0,0.6638,0.6632,0.6574,0.6572,0.6568,0.6524,0.6538,0.6491,0.6501,0.6526,0.6501,0.6501,0.6465,0.646,0.6448,0.6411,0.6408,0.6423,0.6421,0.642,0.6419,0,0,0,0,0,0,0,0.6641,0.6634,0.6569,0.6573,0.657,0.6562,0.6555,0.6529,0.6496,0.6524,0.6522,0.6515,0.6463,0.645,0.6446,0.6407,0.6423,0.6421,0.6419,0.6418,0.6352,0.6352,0,0,0,0,0,0,0.6649,0.6637,0.6571,0.6567,0.6604,0.656,0.6553,0.6538,0.6496,0.6489,0.6515,0.6514,0.6455,0.6449,0.6444,0.642,0.642,0.6418,0.6416,0.6352,0.6352,0.6352,0,0,0,0,0,0,0.6651,0.6643,0.6573,0.6601,0.6592,0.6559,0.6543,0.6537,0.6524,0.6489,0.6483,0.6508,0.6455,0.6447,0.6422,0.6418,0.6416,0.6414,0.6352,0.6352,0.6352,0.6373,0,0,0,0,0,0,0.6654,0.6644,0.6638,0.6602,0.6591,0.6553,0.6542,0.6536,0.652,0.6518,0.6481,0.6475,0.6454,0.6426,0.6419,0.6414,0.6412,0.6353,0.6352,0.6352,0.6373,0.6374,0.6375,0,0,0,0,0,0.6657,0.6645,0.6637,0.6629,0.6582,0.6553,0.6546,0.6523,0.652,0.6513,0.649,0.6476,0.6419,0.6423,0.6415,0.6409,0.6353,0.6352,0.6352,0.6372,0.6374,0.6375,0,0,0,0,0,0,0.668,0.664,0.6631,0.6607,0.6584,0.6548,0.6538,0.6525,0.6501,0.65,0.6472,0.6464,0.644,0.6422,0.6427,0.639,0.6385,0.6383,0.6403,0.6404,0.6405,0.6409,0.641,0,0,0,0,0,0.6683,0.6664,0.6629,0.6612,0.6601,0.6572,0.6558,0.6542,0.6516,0.6506,0.6481,0.6456,0.6432,0.6417,0.6393,0.637,0.6362,0.6362,0.6363,0.6364,0.6363,0.6349,0.6349,0.6351,0.6351,0.6351,0,0,0.6688,0.6664,0.6653,0.6616,0.6596,0.6576,0.6563,0.6542,0.6527,0.6502,0.6477,0.6458,0.6427,0.6403,0.6391,0.6387,0.6361,0.6364,0.6365,0.6363,0.6349,0.6349,0.6349,0.6351,0.6351,0.6351,0,0,0.6687,0.6667,0.665,0.663,0.6601,0.6581,0.6578,0.6543,0.653,0.6504,0.6486,0.6467,0.6426,0.6406,0.639,0.6382,0.6368,0.6375,0.6379,0.6367,0.6367,0.6366,0.6363,0.6362,0.6373,0.6373,0.6373,0,0.6696,0.6666,0.6643,0.6623,0.6607,0.6586,0.6568,0.655,0.6514,0.6503,0.6499,0.6449,0.6427,0.6397,0.6396,0.6384,0.6378,0.6378,0.6369,0.6368,0.6367,0.6364,0.6363,0.6374,0.6374,0.6374,0.6374,0,0.6679,0.6658,0.6649,0.6615,0.6598,0.658,0.6553,0.6539,0.6525,0.6506,0.648,0.6453,0.6423,0.6415,0.6401,0.6384,0.6382,0.6374,0.6368,0.6369,0.6365,0.6364,0.6376,0.6375,0.6375,0.6375,0,0,0.669,0.6645,0.6642,0.6626,0.6592,0.6575,0.6556,0.6528,0.6516,0.6492,0.6474,0.6441,0.6433,0.6416,0.6399,0.6388,0.6383,0.6381,0.638,0.6382,0.6362,0.6368,0.6367,0.6374,0.6374,0.6373,0.6365,0,0.6684,0.6649,0.6628,0.6601,0.6581,0.6561,0.6544,0.6521,0.6503,0.6483,0.6462,0.6439,0.6431,0.642,0.6408,0.6386,0.6378,0.6386,0.6357,0.6356,0.6365,0.6365,0.6371,0.6364,0.6363,0.6363,0.6362,0,0.6672,0.6649,0.6621,0.6589,0.658,0.6565,0.6538,0.652,0.6493,0.648,0.6461,0.6444,0.6422,0.6419,0.6388,0.6394,0.638,0.6368,0.6367,0.6363,0.6359,0.6361,0.6361,0.636,0.636,0.636,0.636,0,0.6683,0.6645,0.6623,0.661,0.6573,0.6563,0.6547,0.652,0.6505,0.6481,0.6471,0.6444,0.643,0.641,0.6386,0.6386,0.6358,0.6352,0.6346,0.6347,0.634,0.6341,0.6339,0.6333,0.6333,0.6333,0.6333,0,0.6677,0.6661,0.6627,0.6614,0.6595,0.657,0.6552,0.6534,0.651,0.6492,0.6473,0.6456,0.6427,0.6406,0.6388,0.6365,0.6359,0.6348,0.6343,0.6349,0.635,0.6339,0.6339,0.6333,0.6333,0.6333,0.6333,0,0.6686,0.6663,0.6638,0.6605,0.6596,0.6583,0.6555,0.654,0.6522,0.6499,0.6493,0.6463,0.6438,0.6413,0.6379,0.6367,0.6345,0.6338,0.6354,0.6351,0.6347,0.6347,0.6337,0.6334,0.6331,0.6331,0.6331,0,0.6684,0.6671,0.6637,0.6624,0.6608,0.6588,0.6572,0.6548,0.6533,0.6502,0.6491,0.6465,0.6443,0.6404,0.6379,0.6353,0.6346,0.6344,0.6342,0.6349,0.6346,0.6347,0.6345,0.6345,0.6345,0.6345,0.6345,0,0.6683,0.6672,0.6651,0.6627,0.6609,0.6588,0.6566,0.6557,0.6528,0.6512,0.6487,0.647,0.6436,0.641,0.6381,0.6364,0.635,0.6347,0.6344,0.635,0.6359,0.6354,0.6356,0.6347,0.6346,0.6346,0.6346,0.6346,0.6686,0.6673,0.6647,0.6625,0.6606,0.6586,0.6572,0.6551,0.653,0.6502,0.6488,0.6463,0.6437,0.6397,0.638,0.6359,0.6355,0.6352,0.635,0.635,0.6351,0.6363,0.6354,0.6354,0.6354,0.6354,0.6354,0,0.6683,0.6666,0.6646,0.6616,0.6598,0.6588,0.6563,0.6549,0.6527,0.6504,0.6483,0.6454,0.6429,0.6403,0.6376,0.6365,0.6358,0.6359,0.6359,0.6355,0.6356,0.6361,0.6365,0.6365,0.6365,0.6365,0.6365,0.6365,0.668,0.6658,0.6645,0.6613,0.6596,0.6572,0.6559,0.654,0.6522,0.6491,0.6471,0.6454,0.6429,0.6401,0.6377,0.637,0.6361,0.6364,0.6355,0.6356,0.6355,0.6354,0.6359,0.6362,0.6362,0.6355,0.6355,0.6355]},{"header":{"parameterUnit":"m.s-1","parameterCategory":1,"la1":30.2991,"la2":30.254,"lo1":-89.0895,"lo2":-89.0444,"dy":0.0017,"dx":0.0017,"nx":28,"ny":28,"refTime":"2024-03-26T09:00:00:Z","depth":0,"parameterNumber":3,"parameterNumberName":"V-component_of_WINDS"},"data":[0,0,0,0,0,0,0,0,0,0,0,0,0,0,0,0,0,0,0,0,0,0,0,0,0,0,0,0,0,0,0,0,0,0,0,0,0,0,0,0,0,0,0,0,0,0,0,0,0,0,0,0,0,0,0,0,0,0,-5.3336,-5.3337,0,-5.3466,-5.3468,-5.3469,-5.3432,-5.3429,-5.3426,-5.3424,-5.3553,-5.3559,-5.3565,0,0,0,0,0,0,0,0,0,0,0,0,0,-5.3051,-5.3056,-5.3336,-5.3338,-5.3339,-5.3466,-5.3468,-5.347,-5.3432,-5.3429,-5.3426,-5.3423,-5.3551,-5.3558,-5.3566,0,0,0,0,0,0,0,0,0,0,0,0,0,-5.3177,-5.3058,-5.3336,-5.3336,-5.3337,-5.3466,-5.3468,-5.347,-5.3433,-5.3429,-5.3425,-5.3421,-5.3549,-5.3558,-5.3567,-5.3702,0,0,-5.3594,-5.3598,0,0,0,0,0,0,0,0,-5.317,-5.3188,-5.3334,-5.3336,-5.3338,-5.3429,-5.3415,-5.3548,-5.3434,-5.3397,-5.3424,-5.3419,-5.3515,-5.3526,-5.3559,-5.3708,-5.3713,-5.3595,-5.36,-5.3604,-5.3606,0,0,0,0,0,0,0,-5.3162,-5.3182,-5.3387,-5.3336,-5.3339,-5.3328,-5.3342,-5.344,-5.3476,-5.3399,-5.3397,-5.3413,-5.3515,-5.3551,-5.3562,-5.3715,-5.3594,-5.3602,-5.3608,-5.3611,-5.398,-5.3985,0,0,0,0,0,0,-5.3152,-5.3175,-5.3383,-5.3391,-5.3243,-5.3337,-5.3352,-5.3404,-5.3475,-5.3482,-5.3416,-5.3411,-5.3538,-5.3552,-5.3567,-5.373,-5.3604,-5.3612,-5.3617,-5.3976,-5.3981,-5.3986,0,0,0,0,0,0,-5.3146,-5.3171,-5.3378,-5.3283,-5.3308,-5.3346,-5.3404,-5.3408,-5.3444,-5.3488,-5.3494,-5.3447,-5.3535,-5.3554,-5.3669,-5.3734,-5.3616,-5.3624,-5.3971,-5.3978,-5.3984,-5.4058,0,0,0,0,0,0,-5.3138,-5.3169,-5.3222,-5.3284,-5.3313,-5.3479,-5.3408,-5.3414,-5.346,-5.3454,-5.3518,-5.3525,-5.3533,-5.3656,-5.3678,-5.3744,-5.3631,-5.3965,-5.3974,-5.3982,-5.405,-5.4066,-5.408,0,0,0,0,0,-5.3128,-5.3236,-5.3225,-5.325,-5.338,-5.3483,-5.35,-5.3509,-5.3466,-5.3518,-5.3546,-5.3523,-5.3723,-5.3668,-5.3692,-5.3762,-5.3961,-5.3971,-5.3981,-5.4043,-5.4063,-5.408,0,0,0,0,0,0,-5.3179,-5.3244,-5.3232,-5.3364,-5.3419,-5.3477,-5.3544,-5.353,-5.3596,-5.3588,-5.3595,-5.3609,-5.3727,-5.3756,-5.3693,-5.3897,-5.3835,-5.3851,-5.3874,-5.3893,-5.3908,-5.3899,-5.3639,0,0,0,0,0,-5.3206,-5.3285,-5.3337,-5.3449,-5.3477,-5.3506,-5.3551,-5.3553,-5.3609,-5.3632,-5.3668,-5.3722,-5.3797,-5.3847,-5.3918,-5.4053,-5.4066,-5.4113,-5.4128,-5.4141,-5.4154,-5.4228,-5.4249,-5.4019,-5.4019,-5.4019,0,0,-5.3262,-5.3307,-5.3357,-5.346,-5.3503,-5.3584,-5.3525,-5.3613,-5.3673,-5.3644,-5.3756,-5.3784,-5.3845,-5.3971,-5.4027,-5.3998,-5.4221,-5.4154,-5.4163,-5.417,-5.424,-5.4262,-5.4282,-5.4026,-5.4025,-5.4024,0,0,-5.3406,-5.3448,-5.3546,-5.359,-5.3655,-5.3674,-5.3697,-5.3758,-5.3776,-5.3888,-5.3868,-5.3938,-5.4068,-5.4112,-5.4152,-5.4312,-5.4293,-5.4335,-5.4415,-5.4487,-5.4505,-5.4521,-5.4579,-5.46,-5.4348,-5.4348,-5.4348,0,-5.3467,-5.359,-5.3598,-5.3688,-5.3734,-5.3713,-5.3812,-5.3853,-5.3938,-5.397,-5.3936,-5.4098,-5.4137,-5.4273,-5.4312,-5.4345,-5.4371,-5.4328,-5.4502,-5.4518,-5.4533,-5.4589,-5.461,-5.4353,-5.4352,-5.4352,-5.4351,0,-5.3662,-5.3747,-5.3818,-5.3902,-5.3956,-5.405,-5.4071,-5.4125,-5.4122,-5.4143,-5.4257,-5.4304,-5.4384,-5.4416,-5.4414,-5.4552,-5.4532,-5.45,-5.4439,-5.456,-5.4612,-5.4633,-5.436,-5.4358,-5.4357,-5.4355,0,0,-5.3842,-5.393,-5.3956,-5.3994,-5.4065,-5.413,-5.4223,-5.4303,-5.4349,-5.4408,-5.4485,-5.4595,-5.4566,-5.4611,-5.4613,-5.4676,-5.4801,-5.4636,-5.4638,-5.4666,-5.4956,-5.4981,-5.5005,-5.4788,-5.4792,-5.4795,-5.4951,0,-5.3993,-5.4158,-5.4168,-5.4317,-5.4395,-5.4376,-5.4456,-5.4508,-5.453,-5.4599,-5.4623,-5.4702,-5.4657,-5.4684,-5.4745,-5.4773,-5.4859,-5.4762,-5.486,-5.4863,-5.4847,-5.5032,-5.5058,-5.5204,-5.4972,-5.4975,-5.4978,0,-5.4191,-5.4258,-5.4415,-5.4475,-5.4508,-5.4581,-5.4656,-5.4722,-5.4779,-5.4791,-5.4842,-5.4835,-5.4928,-5.4863,-5.4992,-5.4926,-5.4966,-5.4986,-5.4991,-5.5002,-5.4929,-5.5048,-5.525,-5.5272,-5.501,-5.5007,-5.5005,0,-5.4308,-5.4437,-5.4548,-5.4581,-5.4653,-5.4705,-5.4737,-5.4791,-5.4838,-5.4903,-5.4934,-5.5007,-5.5048,-5.5105,-5.5118,-5.5069,-5.5247,-5.5183,-5.5259,-5.5259,-5.5298,-5.5296,-5.551,-5.5323,-5.5322,-5.5322,-5.5321,0,-5.4476,-5.4573,-5.4602,-5.467,-5.4778,-5.4788,-5.4894,-5.4922,-5.497,-5.5043,-5.5029,-5.5098,-5.511,-5.5181,-5.5191,-5.5296,-5.5314,-5.5326,-5.5328,-5.5328,-5.5327,-5.5355,-5.5346,-5.5328,-5.5326,-5.5325,-5.5324,0,-5.4625,-5.4648,-5.4768,-5.4827,-5.4844,-5.4921,-5.4971,-5.5036,-5.5057,-5.5149,-5.5171,-5.5203,-5.5286,-5.5304,-5.5401,-5.5408,-5.5533,-5.5524,-5.5515,-5.5514,-5.559,-5.5583,-5.5831,-5.5864,-5.5654,-5.5656,-5.5658,0,-5.4732,-5.4806,-5.4873,-5.4922,-5.4957,-5.5035,-5.5084,-5.5096,-5.5147,-5.5218,-5.5275,-5.5356,-5.5422,-5.5554,-5.5585,-5.5659,-5.5653,-5.5734,-5.5664,-5.5662,-5.5655,-5.5651,-5.5658,-5.5748,-5.575,-5.5752,-5.5754,0,-5.4918,-5.4926,-5.4998,-5.5074,-5.5134,-5.5194,-5.5251,-5.5291,-5.531,-5.5369,-5.5454,-5.5505,-5.5605,-5.5685,-5.576,-5.5791,-5.5776,-5.5776,-5.5797,-5.5799,-5.579,-5.5797,-5.5553,-5.577,-5.5768,-5.5767,-5.5766,-5.5766,-5.505,-5.5115,-5.5173,-5.5254,-5.5298,-5.5352,-5.5417,-5.5446,-5.5518,-5.5601,-5.5603,-5.5696,-5.575,-5.5849,-5.5885,-5.5957,-5.5931,-5.5962,-5.597,-5.5978,-5.5986,-5.5778,-5.597,-5.597,-5.5969,-5.5969,-5.5968,0,-5.5236,-5.5272,-5.5346,-5.5428,-5.5491,-5.5472,-5.5535,-5.5589,-5.5671,-5.5724,-5.5789,-5.5887,-5.5965,-5.6002,-5.6079,-5.6129,-5.6124,-5.6149,-5.6146,-5.6154,-5.6004,-5.5978,-5.6152,-5.6152,-5.6152,-5.6152,-5.6152,-5.6152,-5.534,-5.5451,-5.5465,-5.5597,-5.5632,-5.5725,-5.5762,-5.5811,-5.5854,-5.5964,-5.603,-5.6054,-5.61,-5.6181,-5.6251,-5.626,-5.6289,-5.6318,-5.6323,-5.6183,-5.6164,-5.6146,-5.6122,-5.6324,-5.6324,-5.6467,-5.6468,-5.6469]}]]